H1 CPF 2 NER 2021 5 7 9 127 01 glonass127 H2 1106403 9127 37869 2021 5 7 0 0 0 2021 5 10 23 45 0 900 1 1 0 0 0 1 H9 10 0 59341 0.00000 0 -9154780.804 -13118428.929 -19814422.280 10 0 59341 900.00000 0 -9262982.338 -15462514.919 -17997317.877 10 0 59341 1800.00000 0 -9521174.060 -17547040.617 -15829148.052 10 0 59341 2700.00000 0 -9888240.975 -19323477.899 -13352412.756 10 0 59341 3600.00000 0 -10315754.137 -20753948.583 -10615583.839 10 0 59341 4500.00000 0 -10750200.437 -21812603.275 -7672135.786 10 0 59341 5400.00000 0 -11135434.949 -22486503.528 -4579482.584 10 0 59341 6300.00000 0 -11415250.111 -22775972.947 -1397843.172 10 0 59341 7200.00000 0 -11535951.762 -22694405.753 1810940.824 10 0 59341 8100.00000 0 -11448832.511 -22267544.325 4984611.028 10 0 59341 9000.00000 0 -11112438.135 -21532259.418 8061697.983 10 0 59341 9900.00000 0 -10494532.225 -20534887.195 10982703.083 10 0 59341 10800.00000 0 -9573677.642 -19329195.165 13691234.613 10 0 59341 11700.00000 0 -8340369.840 -17974063.701 16135077.217 10 0 59341 12600.00000 0 -6797676.135 -16530980.731 18267175.869 10 0 59341 13500.00000 0 -4961355.428 -15061453.887 20046517.640 10 0 59341 14400.00000 0 -2859454.119 -13624446.848 21438896.712 10 0 59341 15300.00000 0 -531395.176 -12273944.854 22417550.343 10 0 59341 16200.00000 0 1973402.557 -11056748.441 22963655.832 10 0 59341 17100.00000 0 4597319.104 -10010584.729 23066680.818 10 0 59341 18000.00000 0 7276670.023 -9162612.627 22724581.419 10 0 59341 18900.00000 0 9944099.408 -8528382.332 21943845.009 10 0 59341 19800.00000 0 12531133.387 -8111291.297 20739376.589 10 0 59341 20700.00000 0 14970791.522 -7902559.083 19134229.979 10 0 59341 21600.00000 0 17200150.887 -7881722.612 17159187.327 10 0 59341 22500.00000 0 19162758.858 -8017632.405 14852192.816 10 0 59341 23400.00000 0 20810795.872 -8269909.920 12257648.955 10 0 59341 24300.00000 0 22106898.892 -8590806.930 9425586.335 10 0 59341 25200.00000 0 23025569.238 -8927390.885 6410720.299 10 0 59341 26100.00000 0 23554104.790 -9223965.925 3271410.630 10 0 59341 27000.00000 0 23693015.715 -9424628.554 68542.670 10 0 59341 27900.00000 0 23455904.026 -9475850.213 -3135649.481 10 0 59341 28800.00000 0 22868809.595 -9328976.875 -6278795.040 10 0 59341 29700.00000 0 21969047.957 -8942538.166 -9299609.943 10 0 59341 30600.00000 0 20803587.050 -8284265.740 -12139106.680 10 0 59341 31500.00000 0 19427030.220 -7332732.289 -14741765.290 10 0 59341 32400.00000 0 17899290.200 -6078538.281 -17056640.708 10 0 59341 33300.00000 0 16283052.593 -4524992.614 -19038382.681 10 0 59341 34200.00000 0 14641137.003 -2688255.075 -20648146.052 10 0 59341 35100.00000 0 13033868.678 -596931.716 -21854371.637 10 0 59341 36000.00000 0 11516573.372 1708862.008 -22633420.677 10 0 59341 36900.00000 0 10137302.864 4178932.226 -22970049.075 10 0 59341 37800.00000 0 8934888.552 6754872.180 -22857711.276 10 0 59341 38700.00000 0 7937406.097 9372283.800 -22298687.489 10 0 59341 39600.00000 0 7161116.186 11963261.279 -21304031.798 10 0 59341 40500.00000 0 6609925.513 14459031.410 -19893342.827 10 0 59341 41400.00000 0 6275389.354 16792638.853 -18094362.370 10 0 59341 42300.00000 0 6137253.608 18901562.618 -15942411.272 10 0 59341 43200.00000 0 6164510.706 20730153.571 -13479675.225 10 0 59341 44100.00000 0 6316921.778 22231790.690 -10754356.280 10 0 59341 45000.00000 0 6546937.612 23370666.359 -7819708.676 10 0 59341 45900.00000 0 6801934.162 24123127.283 -4732979.747 10 0 59341 46800.00000 0 7026665.478 24478516.995 -1554278.299 10 0 59341 47700.00000 0 7165828.339 24439487.331 1654605.869 10 0 59341 48600.00000 0 7166628.918 24021768.983 4831407.281 10 0 59341 49500.00000 0 6981242.593 23253413.984 7914590.971 10 0 59341 50400.00000 0 6569063.406 22173544.909 10844536.055 10 0 59341 51300.00000 0 5898649.344 20830665.746 13564674.453 10 0 59341 52200.00000 0 4949282.909 19280606.935 16022564.018 10 0 59341 53100.00000 0 3712083.052 17584191.456 18170877.055 10 0 59341 54000.00000 0 2190623.279 15804719.334 19968287.404 10 0 59341 54900.00000 0 401031.118 14005374.540 21380241.444 10 0 59341 55800.00000 0 -1628434.723 12246660.529 22379600.600 10 0 59341 56700.00000 0 -3858312.249 10583968.815 22947145.277 10 0 59341 57600.00000 0 -6239331.728 9065379.017 23071932.462 10 0 59341 58500.00000 0 -8714222.890 7729779.238 22751501.380 10 0 59341 59400.00000 0 -11219861.459 6605382.580 21991923.895 10 0 59341 60300.00000 0 -13689669.167 5708699.695 20807698.506 10 0 59341 61200.00000 0 -16056170.920 5044009.187 19221489.057 10 0 59341 62100.00000 0 -18253606.192 4603347.694 17263711.554 10 0 59341 63000.00000 0 -20220488.937 4367020.713 14971974.833 10 0 59341 63900.00000 0 -21902011.462 4304614.098 12390383.375 10 0 59341 64800.00000 0 -23252193.296 4376465.599 9568712.983 10 0 59341 65700.00000 0 -24235685.484 4535536.554 6561472.688 10 0 59341 66600.00000 0 -24829154.008 4729606.797 3426868.805 10 0 59341 67500.00000 0 -25022182.714 4903701.563 225689.465 10 0 59341 68400.00000 0 -24817655.593 5002648.565 -2979869.819 10 0 59341 69300.00000 0 -24231599.697 4973656.913 -6127417.042 10 0 59341 70200.00000 0 -23292492.725 4768807.567 -9155587.110 10 0 59341 71100.00000 0 -22040062.078 4347347.802 -12005252.923 10 0 59341 72000.00000 0 -20523624.256 3677689.754 -14620698.845 10 0 59341 72900.00000 0 -18800033.553 2739025.089 -16950731.728 10 0 59341 73800.00000 0 -16931326.257 1522483.927 -18949705.635 10 0 59341 74700.00000 0 -14982160.193 31785.588 -20578437.973 10 0 59341 75600.00000 0 -13017158.604 -1716649.467 -21804997.139 10 0 59341 76500.00000 0 -11098271.773 -3694133.758 -22605344.511 10 0 59341 77400.00000 0 -9282269.177 -5860676.414 -22963816.834 10 0 59341 78300.00000 0 -7618469.247 -8166436.739 -22873438.660 10 0 59341 79200.00000 0 -6146803.393 -10553606.776 -22336058.332 10 0 59341 80100.00000 0 -4896296.308 -12958643.224 -21362304.901 10 0 59341 81000.00000 0 -3884026.233 -15314753.986 -19971367.373 10 0 59341 81900.00000 0 -3114607.847 -17554533.755 -18190601.575 10 0 59341 82800.00000 0 -2580217.687 -19612636.677 -16054973.705 10 0 59341 83700.00000 0 -2261158.386 -21428372.929 -13606353.091 10 0 59341 84600.00000 0 -2126934.794 -22948119.727 -10892669.810 10 0 59341 85500.00000 0 -2137793.172 -24127445.559 -7966955.669 10 0 59342 0.00000 0 -2246655.061 -24932859.360 -4886289.244 10 0 59342 900.00000 0 -2401360.801 -25343112.530 -1710666.958 10 0 59342 1800.00000 0 -2547125.783 -25350002.069 1498175.245 10 0 59342 2700.00000 0 -2629102.862 -24958642.444 4677966.836 10 0 59342 3600.00000 0 -2594942.544 -24187199.345 7767109.378 10 0 59342 4500.00000 0 -2397241.985 -23066098.232 10705861.740 10 0 59342 5400.00000 0 -1995780.387 -21636744.000 13437481.494 10 0 59342 6300.00000 0 -1359447.669 -19949807.168 15909301.682 10 0 59342 7200.00000 0 -467786.873 -18063149.492 18073723.843 10 0 59342 8100.00000 0 687912.846 -16039475.875 19889110.364 10 0 59342 9000.00000 0 2104017.120 -13943809.733 21320561.429 10 0 59342 9900.00000 0 3764465.261 -11840895.436 22340564.001 10 0 59342 10800.00000 0 5641210.440 -9792633.575 22929502.725 10 0 59342 11700.00000 0 7695163.447 -7855652.861 23076024.799 10 0 59342 12600.00000 0 9877602.276 -6079116.711 22777253.144 10 0 59342 13500.00000 0 12131991.241 -4502852.837 22038844.436 10 0 59342 14400.00000 0 14396136.953 -3155881.231 20874890.734 10 0 59342 15300.00000 0 16604594.764 -2055400.165 19307665.708 10 0 59342 16200.00000 0 18691228.931 -1206271.539 17367218.755 10 0 59342 17100.00000 0 20591823.011 -601027.012 15090822.625 10 0 59342 18000.00000 0 22246634.051 -220395.487 12522282.710 10 0 59342 18900.00000 0 23602785.662 -34331.170 9711118.650 10 0 59342 19800.00000 0 24616400.550 -3500.824 6711631.408 10 0 59342 20700.00000 0 25254382.782 -81169.463 3581871.723 10 0 59342 21600.00000 0 25495773.697 -215406.574 382528.084 10 0 59342 22500.00000 0 25332622.359 -351520.741 -2824245.310 10 0 59342 23400.00000 0 24770331.262 -434620.060 -5976038.142 10 0 59342 24300.00000 0 23827459.855 -412189.352 -9011407.293 10 0 59342 25200.00000 0 22534991.357 -236573.551 -11871089.070 10 0 59342 26100.00000 0 20935091.435 132740.234 -14499175.055 10 0 59342 27000.00000 0 19079409.306 727141.606 -16844226.747 10 0 59342 27900.00000 0 17026991.855 1567303.897 -18860305.054 10 0 59342 28800.00000 0 14841898.546 2662050.139 -20507892.260 10 0 59342 29700.00000 0 12590618.081 4007729.105 -21754686.427 10 0 59342 30600.00000 0 10339396.606 5588130.566 -22576250.916 10 0 59342 31500.00000 0 8151591.357 7374945.351 -22956504.879 10 0 59342 32400.00000 0 6085162.434 9328752.152 -22888044.240 10 0 59342 33300.00000 0 4190409.326 11400490.028 -22372286.394 10 0 59342 34200.00000 0 2508048.143 13533354.335 -21419435.875 10 0 59342 35100.00000 0 1067710.319 15665035.509 -20048272.177 10 0 59342 36000.00000 0 -113074.830 17730205.332 -18285764.818 10 0 59342 36900.00000 0 -1029372.510 19663144.695 -16166524.564 10 0 59342 37800.00000 0 -1688791.493 21400401.101 -13732103.146 10 0 59342 38700.00000 0 -2110895.057 22883363.227 -11030157.017 10 0 59342 39600.00000 0 -2326102.063 24060643.789 -8113493.489 10 0 59342 40500.00000 0 -2374128.239 24890170.795 -5039019.833 10 0 59342 41400.00000 0 -2302036.994 25340900.191 -1866617.607 10 0 59342 42300.00000 0 -2161985.193 25394079.542 1342034.181 10 0 59342 43200.00000 0 -2008761.614 25044011.871 4524663.103 10 0 59342 44100.00000 0 -1897223.756 24298290.173 7619610.483 10 0 59342 45000.00000 0 -1879741.955 23177495.473 10567018.183 10 0 59342 45900.00000 0 -2003758.577 21714373.640 13309972.617 10 0 59342 46800.00000 0 -2309564.281 19952527.488 15795585.097 10 0 59342 47700.00000 0 -2828383.546 17944680.298 17975989.315 10 0 59342 48600.00000 0 -3580848.223 15750583.774 19809238.922 10 0 59342 49500.00000 0 -4575921.534 13434657.220 21260090.380 10 0 59342 50400.00000 0 -5810316.227 11063454.925 22300658.394 10 0 59342 51300.00000 0 -7268430.515 8703064.928 22910933.698 10 0 59342 52200.00000 0 -8922804.536 6416544.446 23079155.161 10 0 59342 53100.00000 0 -10735079.203 4261495.473 22802030.398 10 0 59342 54000.00000 0 -12657419.298 2287878.086 22084801.375 10 0 59342 54900.00000 0 -14634344.092 536149.487 20941153.618 10 0 59342 55800.00000 0 -16604892.233 -964196.063 19392969.937 10 0 59342 56700.00000 0 -18505034.029 -2195627.155 17469931.834 10 0 59342 57600.00000 0 -20270233.721 -3153073.976 15208974.106 10 0 59342 58500.00000 0 -21838057.510 -3843904.770 12653600.688 10 0 59342 59400.00000 0 -23150720.389 -4287380.110 9853072.230 10 0 59342 60300.00000 0 -24157466.311 -4513606.375 6861478.487 10 0 59342 61200.00000 0 -24816681.915 -4562030.641 3736711.234 10 0 59342 62100.00000 0 -25097654.143 -4479538.717 539355.788 10 0 59342 63000.00000 0 -24981895.940 -4318235.235 -2668478.543 10 0 59342 63900.00000 0 -24463981.623 -4132998.819 -5824366.699 10 0 59342 64800.00000 0 -23551853.728 -3978915.886 -8866791.027 10 0 59342 65700.00000 0 -22266585.267 -3908702.610 -11736354.598 10 0 59342 66600.00000 0 -20641604.558 -3970226.044 -14376959.380 10 0 59342 67500.00000 0 -18721412.931 -4204231.882 -16736924.406 10 0 59342 68400.00000 0 -16559847.657 -4642378.090 -18770019.941 10 0 59342 69300.00000 0 -14217962.426 -5305660.836 -20436395.183 10 0 59342 70200.00000 0 -11761614.528 -6203302.455 -21703379.341 10 0 59342 71100.00000 0 -9258860.756 -7332151.296 -22546138.617 10 0 59342 72000.00000 0 -6777272.657 -8676621.019 -22948174.806 10 0 59342 72900.00000 0 -4381285.189 -10209173.454 -22901654.807 10 0 59342 73800.00000 0 -2129691.308 -11891325.426 -22407564.122 10 0 59342 74700.00000 0 -73388.696 -13675137.039 -21475681.338 10 0 59342 75600.00000 0 1746526.487 -15505118.035 -20124374.607 10 0 59342 76500.00000 0 3300239.180 -17320470.709 -18380225.007 10 0 59342 77400.00000 0 4570207.313 -19057573.401 -16277485.510 10 0 59342 78300.00000 0 5551626.437 -20652598.404 -13857387.742 10 0 59342 79200.00000 0 6252350.336 -22044152.743 -11167311.930 10 0 59342 80100.00000 0 6692274.327 -23175829.572 -8259838.262 10 0 59342 81000.00000 0 6902210.957 -23998562.489 -5191700.156 10 0 59342 81900.00000 0 6922309.308 -24472683.919 -2022661.634 10 0 59342 82800.00000 0 6800088.091 -24569601.990 1185657.644 10 0 59342 83700.00000 0 6588168.572 -24273027.036 4370985.690 10 0 59342 84600.00000 0 6341805.317 -23579698.328 7471605.814 10 0 59342 85500.00000 0 6116320.282 -22499582.945 10427544.948 10 0 59343 0.00000 0 5964548.917 -21055540.888 13181720.208 10 0 59343 900.00000 0 5934405.771 -19282472.269 15681023.019 10 0 59343 1800.00000 0 6066669.876 -17225984.631 17877320.714 10 0 59343 2700.00000 0 6393083.155 -14940635.635 19728359.513 10 0 59343 3600.00000 0 6934837.917 -12487825.273 21198553.220 10 0 59343 4500.00000 0 7701516.429 -9933423.760 22259645.079 10 0 59343 5400.00000 0 8690525.101 -7345231.988 22891232.445 10 0 59343 6300.00000 0 9887046.501 -4790377.265 23081146.126 10 0 59343 7200.00000 0 11264511.365 -2332749.433 22825678.455 10 0 59343 8100.00000 0 12785572.040 -30580.440 22129656.491 10 0 59343 9000.00000 0 14403538.730 2065735.338 21006358.830 10 0 59343 9900.00000 0 16064221.206 3915492.081 19477276.840 10 0 59343 10800.00000 0 17708102.213 5489119.963 17571723.376 10 0 59343 11700.00000 0 19272754.950 6769169.919 15326294.352 10 0 59343 12600.00000 0 20695406.472 7750794.959 12784191.117 10 0 59343 13500.00000 0 21915542.109 8441707.397 9994413.992 10 0 59343 14400.00000 0 22877443.289 8861612.631 7010839.937 10 0 59343 15300.00000 0 23532552.787 9041141.585 3891199.932 10 0 59343 16200.00000 0 23841567.482 9020325.001 695974.047 10 0 59343 17100.00000 0 23776169.041 8846672.352 -2512775.585 10 0 59343 18000.00000 0 23320317.199 8572935.286 -5672611.595 10 0 59343 18900.00000 0 22471048.181 8254649.772 -8721944.319 10 0 59343 19800.00000 0 21238741.234 7947561.280 -11601246.118 10 0 59343 20700.00000 0 19646838.836 7705043.224 -14254231.796 10 0 59343 21600.00000 0 17731029.417 7575619.957 -16628980.259 10 0 59343 22500.00000 0 15537924.728 7600701.782 -18678973.327 10 0 59343 23400.00000 0 13123286.004 7812630.771 -20364029.161 10 0 59343 24300.00000 0 10549872.841 8233123.059 -21651110.010 10 0 59343 25200.00000 0 7885005.207 8872176.296 -22514986.660 10 0 59343 26100.00000 0 5197941.744 9727490.719 -22938745.094 10 0 59343 27000.00000 0 2557185.461 10784429.993 -22914124.507 10 0 59343 27900.00000 0 27831.022 12016524.410 -22441679.529 10 0 59343 28800.00000 0 -2330933.949 13386495.296 -21530763.461 10 0 59343 29700.00000 0 -4468068.138 14847756.836 -20199333.366 10 0 59343 30600.00000 0 -6342562.478 16346330.781 -18473581.688 10 0 59343 31500.00000 0 -7924894.247 17823091.642 -16387402.959 10 0 59343 32400.00000 0 -9197989.958 19216245.929 -13981707.624 10 0 59343 33300.00000 0 -10157658.959 20463939.147 -11303598.208 10 0 59343 34200.00000 0 -10812482.574 21506879.187 -8405425.954 10 0 59343 35100.00000 0 -11183167.071 22290864.562 -5343748.298 10 0 59343 36000.00000 0 -11301391.533 22769110.653 -2178209.345 10 0 59343 36900.00000 0 -11208202.942 22904276.314 1029633.179 10 0 59343 37800.00000 0 -10952029.549 22670106.619 4217510.472 10 0 59343 38700.00000 0 -10586399.123 22052624.298 7323650.684 10 0 59343 39600.00000 0 -10167460.210 21050821.827 10287968.753 10 0 59343 40500.00000 0 -9751411.905 19676827.360 13053215.566 10 0 59343 41400.00000 0 -9391950.439 17955539.554 15566065.397 10 0 59343 42300.00000 0 -9137839.200 15923748.266 17778122.191 10 0 59343 43200.00000 0 -9030702.835 13628778.836 19646827.530 10 0 59343 44100.00000 0 -9103136.109 11126716.588 21136255.163 10 0 59343 45000.00000 0 -9377204.814 8480284.788 22217779.261 10 0 59343 45900.00000 0 -9863399.711 5756462.563 22870605.914 10 0 59343 46800.00000 0 -10560085.990 3023939.224 23082159.629 10 0 59343 47700.00000 0 -11453470.724 350507.648 22848318.812 10 0 59343 48600.00000 0 -12518090.012 -2199498.540 22173496.484 10 0 59343 49500.00000 0 -13717796.714 -4567621.042 21070564.661 10 0 59343 50400.00000 0 -15007209.525 -6703448.929 19560623.055 10 0 59343 51300.00000 0 -16333565.486 -8566458.872 17672615.073 10 0 59343 52200.00000 0 -17638901.425 -10127448.754 15442796.385 10 0 59343 53100.00000 0 -18862475.925 -11369505.607 12914063.853 10 0 59343 54000.00000 0 -19943332.916 -12288467.429 10135155.096 10 0 59343 54900.00000 0 -20822901.248 -12892858.701 7159731.503 10 0 59343 55800.00000 0 -21447522.005 -13203300.785 4045360.156 10 0 59343 56700.00000 0 -21770797.228 -13251420.289 852412.536 10 0 59343 57600.00000 0 -21755660.019 -13078299.564 -2357099.914 10 0 59343 58500.00000 0 -21376076.713 -12732533.209 -5520731.141 10 0 59343 59400.00000 0 -20618306.474 -12267971.757 -8576823.132 10 0 59343 60300.00000 0 -19481661.835 -11741247.740 -11465721.169 10 0 59343 61200.00000 0 -17978734.624 -11209189.412 -14130956.437 10 0 59343 62100.00000 0 -16135074.424 -10726233.029 -16520371.047 10 0 59343 63000.00000 0 -13988330.180 -10341945.272 -18587161.394 10 0 59343 63900.00000 0 -11586889.017 -10098763.223 -20290817.190 10 0 59343 64800.00000 0 -8988068.067 -10030050.243 -21597935.761 10 0 59343 65700.00000 0 -6255934.736 -10158552.617 -22482893.871 10 0 59343 66600.00000 0 -3458847.190 -10495324.519 -22928362.415 10 0 59343 67500.00000 0 -666818.939 -11039168.461 -22925652.924 10 0 59343 68400.00000 0 2051180.903 -11776615.889 -22474888.551 10 0 59343 69300.00000 0 4629877.356 -12682448.985 -21584996.152 10 0 59343 70200.00000 0 7010177.352 -13720741.121 -20273520.049 10 0 59343 71100.00000 0 9141390.930 -14846370.848 -18566262.006 10 0 59343 72000.00000 0 10983092.844 -16006943.796 -16496755.743 10 0 59343 72900.00000 0 12506547.605 -17145039.315 -14105587.880 10 0 59343 73800.00000 0 13695640.005 -18200685.006 -11439580.379 10 0 59343 74700.00000 0 14547274.631 -19113952.708 -8550852.513 10 0 59343 75600.00000 0 15071230.906 -19827564.962 -5495782.606 10 0 59343 76500.00000 0 15289483.422 -20289401.001 -2333891.674 10 0 59343 77400.00000 0 15235020.000 -20454796.373 873327.620 10 0 59343 78300.00000 0 14950210.896 -20288539.745 4063612.685 10 0 59343 79200.00000 0 14484801.057 -19766483.939 7175139.333 10 0 59343 80100.00000 0 13893612.436 -18876705.066 10147713.071 10 0 59343 81000.00000 0 13234054.685 -17620163.013 12923920.754 10 0 59343 81900.00000 0 12563549.578 -16010837.475 15450221.497 10 0 59343 82800.00000 0 11936977.045 -14075335.582 17677957.346 10 0 59343 83700.00000 0 11404248.885 -11851988.643 19564266.381 10 0 59343 84600.00000 0 11008110.128 -9389476.083 21072883.083 10 0 59343 85500.00000 0 10782258.018 -6745033.494 22174812.976 10 0 59344 0.00000 0 10749855.152 -3982317.953 22848870.971 10 0 59344 900.00000 0 10922497.452 -1169016.819 23082075.075 10 0 59344 1800.00000 0 11299677.848 1625703.156 22869889.274 10 0 59344 2700.00000 0 11868769.302 4333804.333 22216311.825 10 0 59344 3600.00000 0 12605526.505 6890939.652 21133807.240 10 0 59344 4500.00000 0 13475087.796 9238863.693 19643082.482 10 0 59344 5400.00000 0 14433436.903 11327596.343 17772710.279 10 0 59344 6300.00000 0 15429266.045 13117251.138 15558604.689 10 0 59344 7200.00000 0 16406165.056 14579453.333 13043356.591 10 0 59344 8100.00000 0 17305047.360 15698288.914 10275439.269 10 0 59344 9000.00000 0 18066713.046 16470744.314 7308296.755 10 0 59344 9900.00000 0 18634442.693 16906617.133 4199330.309 10 0 59344 10800.00000 0 18956513.157 17027899.882 1008800.750 10 0 59344 11700.00000 0 18988528.697 16867660.788 -2201333.344 10 0 59344 12600.00000 0 18695467.455 16468466.981 -5368619.474 10 0 59344 13500.00000 0 18053354.392 15880415.263 -8431333.518 10 0 59344 14400.00000 0 17050486.837 15158852.864 -11329695.878 10 0 59344 15300.00000 0 15688157.366 14361884.573 -14007056.201 10 0 59344 16200.00000 0 13980839.918 13547772.474 -16411021.762 10 0 59344 17100.00000 0 11955827.933 12772339.834 -18494505.343 10 0 59344 18000.00000 0 9652337.056 12086491.035 -20216669.876 10 0 59344 18900.00000 0 7120108.117 11533954.847 -21543749.299 10 0 59344 19800.00000 0 4417567.889 11149348.903 -22449727.759 10 0 59344 20700.00000 0 1609624.567 10956649.417 -22916862.296 10 0 59344 21600.00000 0 -1234809.250 10968132.536 -22936037.798 10 0 59344 22500.00000 0 -4045461.414 11183833.162 -22506946.696 10 0 59344 23400.00000 0 -6753400.924 11591544.412 -21638089.796 10 0 59344 24300.00000 0 -9293680.281 12167357.288 -20346598.685 10 0 59344 25200.00000 0 -11607808.091 12876716.580 -18657884.019 10 0 59344 26100.00000 0 -13645947.945 13675946.602 -16605117.859 10 0 59344 27000.00000 0 -15368751.931 14514180.104 -14228561.775 10 0 59344 27900.00000 0 -16748753.153 15335606.524 -11574755.633 10 0 59344 28800.00000 0 -17771260.809 16081942.241 -8695584.943 10 0 59344 29700.00000 0 -18434723.085 16695016.497 -5647246.947 10 0 59344 30600.00000 0 -18750545.975 17119362.248 -2489137.451 10 0 59344 31500.00000 0 -18742379.279 17304701.722 717318.174 10 0 59344 32400.00000 0 -18444903.562 17208221.667 3909865.865 10 0 59344 33300.00000 0 -17902172.513 16796542.990 7026631.520 10 0 59344 34200.00000 0 -17165583.319 16047303.004 10007313.706 10 0 59344 35100.00000 0 -16291562.477 14950285.392 12794337.811 10 0 59344 36000.00000 0 -15339065.434 13508052.200 15333950.400 10 0 59344 36900.00000 0 -14366995.178 11736053.077 17577234.205 10 0 59344 37800.00000 0 -13431647.268 9662208.497 19481026.335 10 0 59344 38700.00000 0 -12584286.750 7325984.980 21008724.406 10 0 59344 39600.00000 0 -11868956.285 4777000.794 22130967.515 10 0 59344 40500.00000 0 -11320604.770 2073219.096 22826181.378 10 0 59344 41400.00000 0 -10963612.360 -721198.352 23080979.148 10 0 59344 42300.00000 0 -10810771.627 -3538290.373 22890411.718 10 0 59344 43200.00000 0 -10862766.169 -6308852.210 22258063.524 10 0 59344 44100.00000 0 -11108168.000 -8965045.525 21195992.057 10 0 59344 45000.00000 0 -11523954.350 -11442957.627 19724511.566 10 0 59344 45900.00000 0 -12076523.557 -13685006.871 17871823.648 10 0 59344 46800.00000 0 -12723169.518 -15642096.712 15673499.821 10 0 59344 47700.00000 0 -13413955.330 -17275430.380 13171823.598 10 0 59344 48600.00000 0 -14093910.011 -18557911.240 10415002.114 10 0 59344 49500.00000 0 -14705458.245 -19475070.165 7456259.863 10 0 59344 50400.00000 0 -15190982.634 -20025479.970 4352829.761 10 0 59344 51300.00000 0 -15495411.381 -20220637.925 1164859.173 10 0 59344 52200.00000 0 -15568722.173 -20084319.248 -2045749.235 10 0 59344 53100.00000 0 -15368255.405 -19651426.709 -5216539.754 10 0 59344 54000.00000 0 -14860736.949 -18966383.073 -8285725.566 10 0 59344 54900.00000 0 -14023922.054 -18081132.900 -11193405.703 10 0 59344 55800.00000 0 -12847787.514 -17052837.545 -13882751.825 10 0 59344 56700.00000 0 -11335218.044 -15941360.930 -16301139.861 10 0 59344 57600.00000 0 -9502154.298 -14806653.317 -18401202.283 10 0 59344 58500.00000 0 -7377193.112 -13706145.268 -20141778.226 10 0 59344 59400.00000 0 -5000654.213 -12692263.932 -21488740.783 10 0 59344 60300.00000 0 -2423150.857 -11810178.789 -22415683.468 10 0 59344 61200.00000 0 296276.474 -11095874.195 -22904450.834 10 0 59344 62100.00000 0 3092385.114 -10574631.818 -22945501.851 10 0 59344 63000.00000 0 5896220.258 -10259988.208 -22538098.306 10 0 59344 63900.00000 0 8637764.604 -10153211.948 -21690314.457 10 0 59344 64800.00000 0 11248635.506 -10243322.061 -20418868.112 10 0 59344 65700.00000 0 13664715.641 -10507645.758 -18748777.297 10 0 59344 66600.00000 0 15828606.212 -10912890.143 -16712850.450 10 0 59344 67500.00000 0 17691799.828 -11416680.231 -14351021.715 10 0 59344 68400.00000 0 19216482.555 -11969495.655 -11709546.100 10 0 59344 69300.00000 0 20376890.941 -12516921.507 -8840072.251 10 0 59344 70200.00000 0 21160169.267 -13002115.663 -5798612.945 10 0 59344 71100.00000 0 21566693.924 -13368386.265 -2644435.214 10 0 59344 72000.00000 0 21609854.593 -13561768.988 561106.516 10 0 59344 72900.00000 0 21315305.026 -13533494.522 3755770.313 10 0 59344 73800.00000 0 20719718.421 -13242242.178 6877635.584 10 0 59344 74700.00000 0 19869102.762 -12656085.336 9866297.096 10 0 59344 75600.00000 0 18816749.400 -11754048.117 12664021.516 10 0 59344 76500.00000 0 17620902.522 -10527209.395 15216845.166 10 0 59344 77400.00000 0 16342247.941 -8979309.515 17475593.305 10 0 59344 78300.00000 0 15041325.984 -7126835.693 19396803.447 10 0 59344 79200.00000 0 13775975.514 -4998583.425 20943537.260 10 0 59344 80100.00000 0 12598913.967 -2634712.440 22086067.919 10 0 59344 81000.00000 0 11555552.029 -85335.863 22802432.041 10 0 59344 81900.00000 0 10682131.633 2591300.316 23078837.687 10 0 59344 82800.00000 0 10004262.561 5330974.135 22909922.066 10 0 59344 83700.00000 0 9535916.834 8065894.384 22298854.892 10 0 59344 84600.00000 0 9278921.612 10727260.808 21257285.486 10 0 59344 85500.00000 0 9222971.502 13247874.915 19805133.983 99